Home > Weather > Olympia > Past weeks

Flag for USA Past Weather in Olympia, Washington, USA — Yesterday and Last 2 Weeks

Now
57 °F

Clear.


Feels Like: 57 °F
Forecast: 57 / 82 °F
Wind: No wind

Location: Olympia Airport

Current Time: Jul 25, 2016 at 3:20:55 AM

Latest Report: Jul 25, 2016 at 2:54 AM


Visibility: 10 mi

Pressure: 30.03 "Hg

Humidity: 83%

Dew Point: 52 °F

Location of OlympiaLocation

Past Weather in Olympia — Graph

°F

Olympia Temperature Yesterday

Maximum temperature yesterday: 82 °F (at 5:54 PM)
Minimum temperature yesterday: 49 °F (at 5:58 AM)
Average temperature yesterday: 67 °F

High & Low Weather Summary for the Past Weeks

 TemperatureHumidityPressure
High86 °F (Jul 21, 4:54 PM)100% (Jul 10, 5:01 AM)30.29 "Hg (Jul 10, 5:01 AM)
Low48 °F (Jul 14, 5:54 AM)32% (Jul 21, 4:54 PM)29.90 "Hg (Jul 17, 6:54 PM)
Average64 °F70%30.10 "Hg
* Reported Jul 10 1:59 AM — Jul 25 1:54 AM, Olympia, Weather by CustomWeather, © 2016

Note: Actual official high and low records may vary slightly from our data, if they occured in-between our weather recording intervals... More about our weather records

Advertising

Olympia Weather History for the Previous 24 Hours

Scroll right to see more
 ConditionsComfort  
Time TempWeatherWind HumidityBarometerVisibility
1:54 AM
Mon, Jul 25
59 °FClear.No wind78%30.03 "Hg10 mi
12:54 AM63 °FClear.7 mph68%30.02 "Hg10 mi
11:54 PM
Sun, Jul 24
59 °FClear.No wind81%30.02 "Hg10 mi
10:54 PM65 °FClear.No wind66%30.01 "Hg10 mi
9:54 PM68 °FClear.No wind59%30.01 "Hg10 mi
8:54 PM74 °FSunny.3 mph45%30.00 "Hg10 mi
7:54 PM79 °FSunny.6 mph39%30.00 "Hg10 mi
6:54 PM80 °FSunny.8 mph38%30.00 "Hg10 mi
5:54 PM82 °FSunny.8 mph35%30.01 "Hg10 mi
4:54 PM81 °FSunny.12 mph37%30.03 "Hg10 mi
3:54 PM81 °FSunny.12 mph37%30.05 "Hg10 mi
2:54 PM79 °FSunny.8 mph38%30.06 "Hg10 mi
1:54 PM78 °FSunny.10 mph37%30.08 "Hg10 mi
12:54 PM76 °FSunny.8 mph42%30.09 "Hg10 mi
11:54 AM73 °FSunny.13 mph46%30.11 "Hg10 mi
10:54 AM70 °FSunny.10 mph55%30.12 "Hg10 mi
9:54 AM66 °FSunny.6 mph63%30.13 "Hg10 mi
8:54 AM63 °FSunny.6 mph70%30.14 "Hg10 mi
7:54 AM60 °FSunny.6 mph78%30.14 "Hg10 mi
6:54 AM54 °FPassing clouds.No wind90%30.14 "Hg10 mi
5:58 AM49 °FFog.No wind97%30.14 "Hg1 mi
4:54 AM50 °FClear.No wind93%30.14 "Hg10 mi
3:54 AM53 °FClear.No wind93%30.15 "Hg10 mi
Weather by CustomWeather, © 2016

See weather overviewHow to use our weather pages